Retour au catalogue

FENGYUN 1C DEB

ActifPO
NORAD 37042·DEBRIS·🇨🇳 China

Lancé May 10, 1999 depuis Taiyuan Satellite Launch Center

Loading…

Prochains Passages (prochaines 24 heures)

TLE

VieillissantSource: Space-Track

Époque: Sep 7, 2026, 16:00 UTC

1 37042U 99025EEA 26250.66677415  .00013317  00000-0  15453-2 0  9993
2 37042  98.6067  34.5775 0044264 254.1216 105.5116 14.84841933767774

Suivez FENGYUN 1C DEB en temps réel avec AllMySat

Download on the App Store